When you browse on this site, cookies collect data to enhance your experience and personalize the content and advertising you see.
Visit our Privacy Policy to learn more. By continuing to use the site, you agree to this use of cookies and data.
  • In United Kingdom
  • List of Countries
  • For 7 days
  • Water Temperature
  • Satellite Maps
  • Weather Map
  • Weather Widgets
  • user-avatar
    Login

    Hourly Weather Kaprun

    Today, 21 February, Thursday

    Time Temperature Precipitation Wind Pressure Humidity
    00:00 -6°C° 0 mm 1 mps 598 mmHg 82%
    01:00 -6°C° 0 mm 1 mps 598 mmHg 81%
    02:00 -6°C° 0 mm 1 mps 598 mmHg 81%
    03:00 -6°C° 0 mm 1 mps 598 mmHg 80%
    04:00 -4°C° 0 mm 1 mps 599 mmHg 80%
    05:00 -4°C° 0 mm 1 mps 599 mmHg 81%
    06:00 -4°C° 0 mm 1 mps 599 mmHg 81%
    07:00 -4°C° 0 mm 1 mps 599 mmHg 82%
    08:00 -2°C° 0 mm 1 mps 600 mmHg 83%
    09:00 -1°C° 0 mm 1 mps 600 mmHg 84%
    10:00 0°C° 0 mm 1 mps 601 mmHg 86%
    11:00 +1°C° 0 mm 1 mps 601 mmHg 87%
    12:00 +1°C° 0 mm 1 mps 601 mmHg 89%
    13:00 +1°C° 0 mm 1 mps 601 mmHg 91%
    14:00 +1°C° 0 mm 1 mps 601 mmHg 92%
    15:00 +1°C° 0 mm 1 mps 600 mmHg 93%
    16:00 +1°C° 0 mm 1 mps 600 mmHg 94%
    17:00 0°C° 0 mm 1 mps 600 mmHg 93%
    18:00 -2°C° 0 mm 1 mps 600 mmHg 92%
    19:00 -5°C° 0 mm 2 mps 599 mmHg 91%
    20:00 -5°C° 0 mm 2 mps 599 mmHg 90%
    21:00 -6°C° 0 mm 2 mps 599 mmHg 90%
    22:00 -6°C° 0 mm 2 mps 599 mmHg 89%
    23:00 -6°C° 0 mm 2 mps 599 mmHg 90%

    Tomorrow, 22 February, Friday

    Time Temperature Precipitation Wind Pressure Humidity
    00:00 -6°C° 0 mm 2 mps 599 mmHg 90%
    01:00 -6°C° 0 mm 2 mps 599 mmHg 91%
    02:00 -6°C° 0.1 mm 2 mps 600 mmHg 91%
    03:00 -6°C° 0.1 mm 2 mps 600 mmHg 91%
    04:00 -5°C° 0.1 mm 2 mps 600 mmHg 91%
    05:00 -5°C° 0.3 mm 2 mps 600 mmHg 91%
    06:00 -5°C° 0.3 mm 2 mps 600 mmHg 91%
    07:00 -5°C° 0.3 mm 3 mps 600 mmHg 92%
    08:00 -5°C° 0.7 mm 3 mps 600 mmHg 92%
    09:00 -5°C° 0.7 mm 3 mps 601 mmHg 93%
    10:00 -4°C° 0.7 mm 4 mps 601 mmHg 93%
    11:00 -4°C° 0.4 mm 4 mps 601 mmHg 93%
    12:00 -4°C° 0.4 mm 4 mps 601 mmHg 94%
    13:00 -4°C° 0.4 mm 4 mps 601 mmHg 94%
    14:00 -4°C° 0.1 mm 4 mps 601 mmHg 94%
    15:00 -4°C° 0.1 mm 3 mps 601 mmHg 94%
    16:00 -4°C° 0.1 mm 3 mps 601 mmHg 94%
    17:00 -4°C° 0.1 mm 3 mps 601 mmHg 95%
    18:00 -5°C° 0.1 mm 3 mps 602 mmHg 96%
    19:00 -5°C° 0.1 mm 2 mps 602 mmHg 97%
    20:00 -5°C° 0 mm 2 mps 602 mmHg 96%
    21:00 -5°C° 0 mm 2 mps 602 mmHg 96%
    22:00 -6°C° 0 mm 2 mps 602 mmHg 95%
    23:00 -6°C° 0 mm 2 mps 602 mmHg 94%

    Day after tomorrow, 23 February, Saturday

    Time Temperature Precipitation Wind Pressure Humidity
    00:00 -7°C° 0 mm 2 mps 602 mmHg 93%
    01:00 -8°C° 0 mm 2 mps 602 mmHg 92%
    02:00 -8°C° 0 mm 2 mps 602 mmHg 91%
    03:00 -8°C° 0 mm 2 mps 601 mmHg 90%
    04:00 -8°C° 0 mm 2 mps 601 mmHg 88%
    05:00 -7°C° 0 mm 1 mps 601 mmHg 86%
    06:00 -7°C° 0 mm 1 mps 601 mmHg 84%
    07:00 -7°C° 0 mm 1 mps 601 mmHg 82%
    08:00 -7°C° 0 mm 2 mps 602 mmHg 81%
    09:00 -5°C° 0 mm 2 mps 603 mmHg 79%
    10:00 -3°C° 0 mm 2 mps 604 mmHg 78%
    11:00 -3°C° 0 mm 2 mps 604 mmHg 79%
    12:00 -2°C° 0 mm 2 mps 604 mmHg 80%
    13:00 -2°C° 0 mm 2 mps 604 mmHg 82%
    14:00 -2°C° 0 mm 2 mps 604 mmHg 81%
    15:00 -2°C° 0 mm 2 mps 604 mmHg 81%
    16:00 -3°C° 0 mm 2 mps 603 mmHg 81%
    17:00 -4°C° 0 mm 2 mps 603 mmHg 78%
    18:00 -6°C° 0 mm 2 mps 603 mmHg 75%
    19:00 -6°C° 0 mm 1 mps 602 mmHg 72%
    20:00 -6°C° 0 mm 1 mps 602 mmHg 67%
    21:00 -6°C° 0 mm 1 mps 603 mmHg 62%
    22:00 -6°C° 0 mm 1 mps 603 mmHg 57%
    23:00 -6°C° 0 mm 1 mps 603 mmHg 56%

    24 February, Sunday

    Time Temperature Precipitation Wind Pressure Humidity
    00:00 -6°C° 0 mm 1 mps 603 mmHg 54%
    01:00 -6°C° 0 mm 1 mps 603 mmHg 52%
    02:00 -6°C° 0 mm 1 mps 603 mmHg 51%
    03:00 -7°C° 0 mm 2 mps 603 mmHg 50%
    04:00 -7°C° 0 mm 2 mps 603 mmHg 49%
    05:00 -6°C° 0 mm 1 mps 603 mmHg 50%
    06:00 -6°C° 0 mm 1 mps 603 mmHg 50%
    07:00 -6°C° 0 mm 1 mps 603 mmHg 51%
    08:00 -3°C° 0 mm 1 mps 604 mmHg 58%
    09:00 -1°C° 0 mm 1 mps 604 mmHg 64%
    10:00 +1°C° 0 mm 1 mps 605 mmHg 71%
    11:00 +2°C° 0 mm 1 mps 605 mmHg 75%
    12:00 +2°C° 0 mm 1 mps 605 mmHg 79%
    13:00 +1°C° 0 mm 2 mps 605 mmHg 83%
    14:00 +2°C° 0 mm 1 mps 605 mmHg 83%
    15:00 +2°C° 0 mm 1 mps 604 mmHg 83%
    16:00 +1°C° 0 mm 1 mps 604 mmHg 83%
    17:00 0°C° 0 mm 1 mps 604 mmHg 79%
    18:00 -1°C° 0 mm 1 mps 604 mmHg 75%
    19:00 -3°C° 0 mm 1 mps 603 mmHg 71%
    20:00 -3°C° 0 mm 1 mps 603 mmHg 71%
    21:00 -3°C° 0 mm 1 mps 604 mmHg 71%
    22:00 -3°C° 0 mm 1 mps 604 mmHg 71%
    23:00 -5°C° 0 mm 2 mps 604 mmHg 72%

    25 February, Monday

    Time Temperature Precipitation Wind Pressure Humidity
    00:00 -5°C° 0 mm 2 mps 603 mmHg 72%
    01:00 -5°C° 0 mm 2 mps 603 mmHg 73%
    02:00 -5°C° 0 mm 2 mps 603 mmHg 72%
    03:00 -6°C° 0 mm 2 mps 603 mmHg 72%
    04:00 -6°C° 0 mm 2 mps 603 mmHg 71%
    05:00 -6°C° 0 mm 2 mps 603 mmHg 72%
    06:00 -6°C° 0 mm 2 mps 603 mmHg 73%
    07:00 -6°C° 0 mm 2 mps 602 mmHg 74%
    08:00 -5°C° 0 mm 2 mps 603 mmHg 76%
    09:00 -5°C° 0 mm 3 mps 604 mmHg 77%
    10:00 -2°C° 0 mm 3 mps 604 mmHg 78%
    11:00 -2°C° 0 mm 3 mps 604 mmHg 80%
    12:00 -2°C° 0 mm 3 mps 604 mmHg 82%
    13:00 -1°C° 0 mm 3 mps 604 mmHg 83%
    14:00 -2°C° 0 mm 2 mps 604 mmHg 84%
    15:00 -2°C° 0 mm 2 mps 604 mmHg 84%
    16:00 -2°C° 0 mm 2 mps 604 mmHg 84%
    17:00 -3°C° 0 mm 2 mps 603 mmHg 84%
    18:00 -3°C° 0 mm 1 mps 603 mmHg 84%
    19:00 -4°C° 0 mm 1 mps 603 mmHg 83%
    20:00 -4°C° 0 mm 1 mps 603 mmHg 78%
    21:00 -4°C° 0 mm 1 mps 603 mmHg 73%
    22:00 -6°C° 0 mm 2 mps 603 mmHg 67%
    23:00 -6°C° 0 mm 2 mps 603 mmHg 63%

    26 February, Tuesday

    Time Temperature Precipitation Wind Pressure Humidity
    00:00 -6°C° 0 mm 2 mps 603 mmHg 58%
    01:00 -6°C° 0 mm 2 mps 603 mmHg 54%
    02:00 -6°C° 0 mm 2 mps 603 mmHg 50%
    03:00 -5°C° 0 mm 2 mps 603 mmHg 47%
    04:00 -5°C° 0 mm 2 mps 603 mmHg 43%
    05:00 -5°C° 0 mm 2 mps 603 mmHg 43%
    06:00 -4°C° 0 mm 2 mps 603 mmHg 42%
    07:00 -4°C° 0 mm 2 mps 603 mmHg 41%
    08:00 0°C° 0 mm 1 mps 603 mmHg 48%
    09:00 +2°C° 0 mm 1 mps 604 mmHg 55%
    10:00 +4°C° 0 mm 1 mps 605 mmHg 62%
    11:00 +4°C° 0 mm 1 mps 604 mmHg 67%
    12:00 +4°C° 0 mm 1 mps 604 mmHg 71%
    13:00 +4°C° 0 mm 2 mps 604 mmHg 76%
    14:00 +3°C° 0 mm 2 mps 604 mmHg 75%
    15:00 +3°C° 0 mm 2 mps 603 mmHg 75%
    16:00 +2°C° 0 mm 2 mps 603 mmHg 74%
    17:00 +1°C° 0 mm 2 mps 602 mmHg 69%
    18:00 -2°C° 0 mm 2 mps 602 mmHg 64%
    19:00 -4°C° 0 mm 2 mps 601 mmHg 59%
    20:00 -4°C° 0 mm 2 mps 601 mmHg 56%
    21:00 -4°C° 0 mm 2 mps 601 mmHg 53%
    22:00 -4°C° 0 mm 2 mps 601 mmHg 50%
    23:00 -4°C° 0 mm 2 mps 601 mmHg 48%
    Show more